Hastings, NE

10:21 PM CDT on March 22, 2017 (GMT -0500)
Hastings Municipal

Weather History for KHSI - February, 2013

Change the Weather History Date:

Friday, February 15, 2013

  Actual Average Record
Temperature  
Mean Temperature 25 °F 30 °F  
Max Temperature 35 °F 40 °F 74 °F (1921)
Min Temperature 14 °F 20 °F -12 °F (1909)
Degree Days  
Heating Degree Days 40 35  
Month to date heating degree days 457 550  
Since 1 July heating degree days 4107 4199  
Cooling Degree Days 0 0  
Month to date cooling degree days 0 0  
Year to date cooling degree days 0 0  
Moisture  
Dew Point 14 °F    
Average Humidity 66    
Maximum Humidity 92    
Minimum Humidity 39    
Precipitation  
Precipitation T in 0.01 in 0.75 in (1969)
Month to date precipitation 0.06 0.24  
Year to date precipitation 0.38 0.65  
Snow  
Snow T in 0.20 in 5.00 in (1938)
Month to date snowfall 0.2 3.8  
Since 1 July snowfall 13.5 19.7  
Snow Depth 0.00 in    
Sea Level Pressure  
Sea Level Pressure 30.39 in    
Wind  
Wind Speed 12 mph (NW)    
Max Wind Speed 29 mph    
Max Gust Speed 36 mph    
Visibility 10 miles    
Events Snow    
T = Trace of Precipitation, MM = Missing Value Source: NWS Daily Summary

Daily Weather History Graph

Daily Weather History Graph

Search for Another Location

Airport or City:

Trip Planner

Search our weather history database for the weather conditions in past years. The results will help you decide how hot, cold, wet, or windy it might be!

Date:

Astronomy

Feb. 15, 2013 Rise Set
Actual Time 7:27 AM CST 6:09 PM CST
Civil Twilight 6:59 AM CST 6:37 PM CST
Nautical Twilight 6:27 AM CST 7:09 PM CST
Astronomical Twilight 5:55 AM CST 7:40 PM CST
Moon 10:02 AM CST (2/15) No Moon Set
Length of Visible Light 11h 38m
Length of Day
10h 42m
Waxing Crescent, 30% of the Moon is Illuminated
Feb 15
Waxing Crescent
Feb 17
First Quarter
Feb 25
Full
Mar 4
Last Quarter
Mar 11
New

Hourly Weather History & Observations

Time (CST) Temp. Windchill Dew Point Humidity Pressure Visibility Wind Dir Wind Speed Gust Speed Precip Events Conditions
12:53 AM 19.9 °F 7.9 °F 16.0 °F 85% 30.38 in 10.0 mi NNW 11.5 mph - N/A   Clear
1:53 AM 19.9 °F 9.3 °F 16.0 °F 85% 30.39 in 10.0 mi NNW 9.2 mph - N/A   Clear
2:53 AM 16.0 °F 7.4 °F 14.0 °F 92% 30.40 in 10.0 mi NNW 5.8 mph - N/A   Clear
3:53 AM 17.1 °F 6.6 °F 14.0 °F 88% 30.39 in 10.0 mi NW 8.1 mph - N/A   Clear
4:53 AM 19.0 °F 10.0 °F 14.0 °F 81% 30.39 in 10.0 mi NW 6.9 mph - N/A   Clear
5:53 AM 16.0 °F 6.3 °F 12.9 °F 88% 30.41 in 10.0 mi WSW 6.9 mph - N/A   Clear
6:53 AM 15.1 °F 7.7 °F 12.0 °F 88% 30.42 in 10.0 mi West 4.6 mph - N/A   Clear
7:53 AM 16.0 °F 10.4 °F 12.9 °F 88% 30.43 in 10.0 mi WSW 3.5 mph - N/A   Clear
8:53 AM 23.0 °F 11.1 °F 18.0 °F 81% 30.42 in 10.0 mi West 12.7 mph - N/A   Scattered Clouds
9:53 AM 27.0 °F 16.1 °F 19.9 °F 75% 30.41 in 10.0 mi West 12.7 mph - N/A   Mostly Cloudy
10:53 AM 30.9 °F 21.2 °F 21.0 °F 67% 30.40 in 10.0 mi West 12.7 mph - N/A   Clear
11:53 AM 33.1 °F 23.4 °F 16.0 °F 50% 30.38 in 10.0 mi WNW 13.8 mph 18.4 mph N/A   Partly Cloudy
12:53 PM 34.0 °F 24.2 °F 15.1 °F 46% 30.36 in 10.0 mi WNW 15.0 mph - N/A   Mostly Cloudy
1:53 PM 33.1 °F 21.2 °F 17.1 °F 52% 30.33 in 8.0 mi WNW 20.7 mph 27.6 mph 0.00 in Snow Light Snow
2:53 PM 34.0 °F 21.0 °F 12.0 °F 40% 30.33 in 10.0 mi NW 26.5 mph 35.7 mph 0.00 in   Overcast
3:53 PM 32.0 °F 18.6 °F 10.9 °F 42% 30.35 in 10.0 mi NNW 25.3 mph 34.5 mph N/A   Partly Cloudy
4:53 PM 30.0 °F 16.3 °F 10.0 °F 43% 30.37 in 10.0 mi NNW 24.2 mph 31.1 mph N/A   Overcast
5:53 PM 27.0 °F 14.3 °F 12.9 °F 56% 30.40 in 10.0 mi NNW 17.3 mph - N/A   Scattered Clouds
6:53 PM 23.0 °F 13.1 °F 17.1 °F 78% 30.42 in 10.0 mi NNW 9.2 mph - N/A   Partly Cloudy
7:53 PM 21.9 °F 12.5 °F 17.1 °F 82% 30.43 in 10.0 mi NNW 8.1 mph - N/A   Clear
8:53 PM 19.9 °F 11.1 °F 14.0 °F 78% 30.42 in 10.0 mi NNW 6.9 mph - N/A   Clear
9:53 PM 15.1 °F 6.4 °F 12.0 °F 88% 30.42 in 10.0 mi North 5.8 mph - N/A   Clear
10:53 PM 16.0 °F 6.3 °F 10.9 °F 81% 30.40 in 10.0 mi North 6.9 mph - N/A   Clear
11:53 PM 14.0 °F 3.9 °F 10.0 °F 84% 30.39 in 10.0 mi NW 6.9 mph - N/A   Clear